Terminal Aerodrome Forecast
Issued by NWS Topeka, KS

Home | Current Version | Previous Version | Graphics & Text | Print | Product List | Glossary On
Versions: 1 2 3 4 5 6 7 8 9 10 11 12
000
FTUS43 KTOP 200500
TAFTOP
TAF
KTOP 200520Z 2006/2106 17003KT P6SM SCT150
     FM201500 18012G20KT P6SM FEW035
     FM210100 17007KT P6SM SCT130=

USA.gov is the U.S. government's official web portal to all federal, state and local government web resources and services.